AEROCUBE 8D

Last updated on Thu Nov 21 2024 00:03:39 GMT+0000 (Coordinated Universal Time)

1 41852U 16067E 24325.43684318 .00011920 00000+0 69112-3 0 9997 2 41852 98.1119 143.7252 0004060 312.2312 47.8572 15.12341806438974
UTC large
Height (km)
Speed (km/s)
/
Latitude / Longitude
Inclination (degrees)
Orbital Period (minutes)
Azimuth
Elevation
Range (km)
Doppler Factor

Next 0 passes for location: London (51.5072 / 0.1276)

Sorry there are no passes over London.